Location: Juniper Campground
(35.7953°N, 106.2814°W)
Time: 11:44:02
(UTC-06:00)

Envisat - Pass Details

Date: 28 August 2018
Orbit: 764 x 766 km, 98.2° (Epoch: 24 September)

Event Time Altitude Azimuth Distance (km) Brightness Sun altitude
Rises 19:58:21 0° 158° (SSE) 3,212 5.9 -4.9°
Reaches altitude 10° 20:00:40 10° 156° (SSE) 2,289 5.1 -5.3°
Maximum altitude 20:05:39 66° 75° (ENE) 832 3.0 -6.3°
Drops below altitude 10° 20:10:41 10° 354° (N) 2,303 5.8 -7.3°
Sets 20:13:00 0° 351° (N) 3,233 6.6 -7.7°
